Location: Newark
(45.2500°N, 7.5833°E)
Time: 06:56:06
(UTC+00:00)

N. Korean satellite - Pass Details

Date: 19 December 2019
Orbit: 454 x 507 km, 97.2° (Epoch: 27 January)

Event Time Altitude Azimuth Distance (km) Brightness Sun altitude
Rises 04:18:36 0° 32° (NNE) 2,509 10.5 -28.1°
Reaches altitude 10° 04:21:39 10° 62° (ENE) 1,616 9.9 -27.5°
Maximum altitude 04:23:17 13° 90° (E) 1,442 9.9 -27.3°
Drops below altitude 10° 04:24:54 10° 119° (ESE) 1,600 10.0 -27.0°
Sets 04:27:53 0° 149° (SSE) 2,461 10.7 -26.5°
